Williams, AZ

5:44 AM MST on June 22, 2017 (GMT -0700)
Williams

Weather History for KCMR - April, 2014

Change the Weather History Date:

Tuesday, April 1, 2014

  Actual Average (K40G) Record (K40G)
Temperature  
Mean Temperature 42 °F -  
Max Temperature 50 °F 51 °F 68 °F (2003)
Min Temperature 35 °F 41 °F 35 °F (1998)
Degree Days  
Heating Degree Days 22    
Moisture  
Dew Point 13 °F    
Average Humidity 32    
Maximum Humidity 70    
Minimum Humidity 13    
Precipitation  
Precipitation 0.00 in - - ()
Sea Level Pressure  
Sea Level Pressure 29.93 in    
Wind  
Wind Speed 22 mph (South)    
Max Wind Speed 32 mph    
Max Gust Speed 50 mph    
Visibility 10 miles    
Events      
Averages and records for this station are not official NWS values.
T = Trace of Precipitation, MM = Missing Value Source: NWS Daily Summary

Daily Weather History Graph

Daily Weather History Graph

Search for Another Location

Airport or City:

Trip Planner

Search our weather history database for the weather conditions in past years. The results will help you decide how hot, cold, wet, or windy it might be!

Date:

Astronomy

Apr. 01, 2014 Rise Set
Actual Time 6:15 AM MST 6:50 PM MST
Civil Twilight 5:49 AM MST 7:15 PM MST
Nautical Twilight 5:19 AM MST 7:46 PM MST
Astronomical Twilight 4:48 AM MST 8:16 PM MST
Moon 7:24 AM MST (4/1) 9:11 PM MST (4/1)
Length of Visible Light 13h 26m
Length of Day
12h 35m
Waxing Crescent, 5% of the Moon is Illuminated
Apr 1
Waxing Crescent
Apr 7
First Quarter
Apr 15
Full
Apr 22
Last Quarter
Apr 28
New

Hourly Weather History & Observations

Time (MST) Temp. Windchill Dew Point Humidity Pressure Visibility Wind Dir Wind Speed Gust Speed Precip Events Conditions
12:15 AM 41.0 °F 31.9 °F 5.0 °F 23% 29.99 in 10.0 mi South 19.6 mph 26.5 mph N/A   Clear
12:35 AM 41.0 °F 32.5 °F 5.0 °F 23% 29.99 in 10.0 mi South 17.3 mph 29.9 mph N/A   Clear
12:55 AM 41.0 °F 31.6 °F 6.8 °F 24% 29.99 in 10.0 mi South 20.7 mph 29.9 mph N/A   Clear
1:15 AM 41.0 °F 31.1 °F 8.6 °F 26% 29.99 in 10.0 mi South 23.0 mph 29.9 mph N/A   Clear
1:35 AM 41.0 °F 30.9 °F 10.4 °F 29% 29.99 in 10.0 mi South 24.2 mph 36.8 mph N/A   Clear
1:55 AM 41.0 °F 31.6 °F 10.4 °F 29% 29.97 in 10.0 mi South 20.7 mph 27.6 mph N/A   Clear
2:15 AM 41.0 °F 30.7 °F 10.4 °F 29% 29.96 in 10.0 mi South 25.3 mph 34.5 mph N/A   Clear
2:35 AM 41.0 °F 31.4 °F 10.4 °F 29% 29.96 in 10.0 mi South 21.9 mph 29.9 mph N/A   Clear
2:55 AM 41.0 °F 31.9 °F 10.4 °F 29% 29.96 in 10.0 mi SSE 19.6 mph 31.1 mph N/A   Clear
3:15 AM 41.0 °F 31.9 °F 10.4 °F 29% 29.95 in 10.0 mi South 19.6 mph 29.9 mph N/A   Clear
3:35 AM 41.0 °F 31.4 °F 12.2 °F 31% 29.94 in 10.0 mi SSE 21.9 mph 29.9 mph N/A   Clear
3:55 AM 41.0 °F 31.1 °F 12.2 °F 31% 29.93 in 10.0 mi South 23.0 mph 33.4 mph N/A   Clear
4:15 AM 39.2 °F 28.0 °F 14.0 °F 36% 29.92 in 10.0 mi SSE 26.5 mph 34.5 mph N/A   Clear
4:35 AM 39.2 °F 28.0 °F 14.0 °F 36% 29.91 in 10.0 mi South 26.5 mph 39.1 mph N/A   Clear
4:55 AM 39.2 °F 28.3 °F 10.4 °F 31% 29.90 in 10.0 mi South 25.3 mph 34.5 mph N/A   Clear
5:15 AM 39.2 °F 29.3 °F 10.4 °F 31% 29.90 in 10.0 mi South 20.7 mph 33.4 mph N/A   Clear
5:35 AM 39.2 °F 28.3 °F 10.4 °F 31% 29.90 in 10.0 mi SSE 25.3 mph 39.1 mph N/A   Clear
5:55 AM 41.0 °F 30.2 °F 10.4 °F 29% 29.89 in 10.0 mi SSE 27.6 mph 41.4 mph N/A   Clear
6:15 AM 39.2 °F 28.7 °F 10.4 °F 31% 29.90 in 10.0 mi South 23.0 mph 35.7 mph N/A   Clear
6:35 AM 39.2 °F 28.3 °F 8.6 °F 28% 29.90 in 10.0 mi South 25.3 mph 35.7 mph N/A   Clear
6:55 AM 39.2 °F 28.3 °F 10.4 °F 31% 29.91 in 10.0 mi South 25.3 mph 36.8 mph N/A   Clear
7:15 AM 39.2 °F 30.5 °F 10.4 °F 31% 29.93 in 10.0 mi South 16.1 mph 29.9 mph N/A   Clear
7:35 AM 41.0 °F 32.8 °F 8.6 °F 26% 29.94 in 10.0 mi South 16.1 mph 28.8 mph N/A   Clear
7:55 AM 41.0 °F 33.5 °F 6.8 °F 24% 29.95 in 10.0 mi SSE 13.8 mph 31.1 mph N/A   Clear
8:15 AM 41.0 °F 31.6 °F 5.0 °F 23% 29.96 in 10.0 mi South 20.7 mph 32.2 mph N/A   Clear
8:35 AM 42.8 °F 34.3 °F 3.2 °F 19% 29.95 in 10.0 mi South 19.6 mph 33.4 mph N/A   Clear
8:55 AM 44.6 °F 35.7 °F -0.4 °F 15% 29.96 in 10.0 mi South 24.2 mph 34.5 mph N/A   Clear
9:15 AM 44.6 °F 36.6 °F -0.4 °F 15% 29.96 in 10.0 mi South 19.6 mph 28.8 mph N/A   Clear
9:35 AM 44.6 °F 36.4 °F -2.2 °F 14% 29.96 in 10.0 mi South 20.7 mph 41.4 mph N/A   Clear
9:55 AM 46.4 °F 38.5 °F -2.2 °F 13% 29.96 in 10.0 mi SSW 21.9 mph 36.8 mph N/A   Clear
10:15 AM 46.4 °F 37.9 °F -0.4 °F 14% 29.96 in 10.0 mi South 25.3 mph 35.7 mph N/A   Clear
10:35 AM 48.2 °F - 1.4 °F 15% 29.97 in 10.0 mi SSW 25.3 mph 31.1 mph N/A   Clear
10:55 AM 46.4 °F 38.1 °F 1.4 °F 16% 29.96 in 10.0 mi South 24.2 mph 35.7 mph N/A   Clear
11:15 AM 48.2 °F - 1.4 °F 15% 29.96 in 10.0 mi South 21.9 mph 36.8 mph N/A   Clear
11:35 AM 48.2 °F - 5.0 °F 17% 29.95 in 10.0 mi SSE 32.2 mph 39.1 mph N/A   Clear
11:55 AM 48.2 °F - 6.8 °F 19% 29.95 in 10.0 mi South 27.6 mph 43.7 mph N/A   Clear
12:15 PM 50.0 °F - 8.6 °F 19% 29.94 in 10.0 mi South 29.9 mph 39.1 mph N/A   Clear
12:35 PM 48.2 °F - 8.6 °F 20% 29.93 in 10.0 mi SSW 26.5 mph 43.7 mph N/A   Clear
12:55 PM 50.0 °F - 8.6 °F 19% 29.93 in 10.0 mi South 26.5 mph 38.0 mph N/A   Clear
1:35 PM 50.0 °F - 10.4 °F 20% 29.90 in 10.0 mi SSW 31.1 mph 49.5 mph N/A   Clear
1:55 PM 50.0 °F - 12.2 °F 22% 29.91 in 10.0 mi SSW 32.2 mph 42.6 mph N/A   Clear
2:15 PM 50.0 °F - 12.2 °F 22% 29.91 in 10.0 mi South 32.2 mph 47.2 mph N/A   Clear
2:35 PM 50.0 °F - 14.0 °F 24% 29.91 in 10.0 mi South 27.6 mph 39.1 mph N/A   Clear
2:55 PM 50.0 °F - 14.0 °F 24% 29.90 in 10.0 mi South 25.3 mph 39.1 mph N/A   Clear
3:15 PM 50.0 °F - 14.0 °F 24% 29.90 in 10.0 mi South 18.4 mph 36.8 mph N/A   Clear
3:35 PM 48.2 °F - 12.2 °F 24% 29.90 in 10.0 mi South 17.3 mph 35.7 mph N/A   Clear
3:55 PM 48.2 °F - 12.2 °F 24% 29.90 in 10.0 mi South 31.1 mph 40.3 mph N/A   Clear
4:15 PM 48.2 °F - 12.2 °F 24% 29.90 in 10.0 mi South 18.4 mph 31.1 mph N/A   Clear
4:35 PM 48.2 °F - 14.0 °F 25% 29.90 in 10.0 mi SSW 25.3 mph 35.7 mph N/A   Clear
4:55 PM 46.4 °F 38.3 °F 14.0 °F 27% 29.90 in 10.0 mi South 23.0 mph 39.1 mph N/A   Clear
5:15 PM 46.4 °F 37.5 °F 15.8 °F 29% 29.89 in 10.0 mi SSE 27.6 mph 38.0 mph N/A   Clear
5:35 PM 46.4 °F 37.7 °F 17.6 °F 32% 29.90 in 10.0 mi South 26.5 mph 35.7 mph N/A   Clear
5:55 PM 44.6 °F 36.6 °F 19.4 °F 37% 29.91 in 10.0 mi South 19.6 mph 31.1 mph N/A   Clear
6:15 PM 44.6 °F 36.6 °F 21.2 °F 39% 29.91 in 10.0 mi SSW 19.6 mph 25.3 mph N/A   Partly Cloudy
6:35 PM 41.0 °F 31.9 °F 21.2 °F 45% 29.90 in 10.0 mi South 19.6 mph 31.1 mph N/A   Clear
6:55 PM 41.0 °F 32.8 °F 23.0 °F 49% 29.90 in 10.0 mi SSW 16.1 mph 21.9 mph N/A   Clear
7:15 PM 39.2 °F 30.8 °F 23.0 °F 52% 29.90 in 10.0 mi SSW 15.0 mph 19.6 mph N/A   Partly Cloudy
7:35 PM 39.2 °F 30.2 °F 24.8 °F 56% 29.90 in 10.0 mi SSW 17.3 mph 24.2 mph N/A   Clear
7:55 PM 39.2 °F 29.8 °F 24.8 °F 56% 29.91 in 10.0 mi South 18.4 mph 25.3 mph N/A   Clear
8:15 PM 39.2 °F 32.0 °F 24.8 °F 56% 29.91 in 10.0 mi SSW 11.5 mph 18.4 mph N/A   Clear
8:35 PM 39.2 °F 32.5 °F 24.8 °F 56% 29.92 in 10.0 mi SSW 10.4 mph 16.1 mph N/A   Partly Cloudy
8:55 PM 39.2 °F 31.6 °F 24.8 °F 56% 29.92 in 10.0 mi South 12.7 mph 21.9 mph N/A   Partly Cloudy
9:15 PM 39.2 °F 29.6 °F 24.8 °F 56% 29.91 in 10.0 mi South 19.6 mph 27.6 mph N/A   Scattered Clouds
9:35 PM 39.2 °F 31.6 °F 24.8 °F 56% 29.90 in 10.0 mi South 12.7 mph 24.2 mph N/A   Scattered Clouds
9:55 PM 37.4 °F 28.5 °F 24.8 °F 60% 29.91 in 10.0 mi South 15.0 mph 18.4 mph N/A   Partly Cloudy
10:35 PM 37.4 °F 28.2 °F 24.8 °F 60% 29.90 in 10.0 mi South 16.1 mph 23.0 mph N/A   Mostly Cloudy
10:55 PM 37.4 °F 28.5 °F 23.0 °F 56% 29.90 in 10.0 mi South 15.0 mph 27.6 mph N/A   Partly Cloudy
11:15 PM 35.6 °F 24.8 °F 23.0 °F 60% 29.90 in 10.0 mi SSE 19.6 mph 25.3 mph N/A   Clear
11:35 PM 35.6 °F 25.5 °F 24.8 °F 65% 29.89 in 10.0 mi SSE 17.3 mph 24.2 mph N/A   Clear
11:55 PM 35.6 °F 24.8 °F 26.6 °F 70% 29.89 in 10.0 mi SSE 19.6 mph 27.6 mph N/A   Partly Cloudy